Hourly Data Report for October 05, 2015

All times are specified in Local Standard Time (LST). Add 1 hour to adjust for Daylight Saving Time where and when it is observed.

KITCHENER/WATERLOO
ONTARIO

43°27'39.000" N
80°22'43.000" W
321.60 m
6144239
71368
YKF

Download Data

Hourly Data (October 2015)
Hourly Data Report for October 5, 2015
Temp Definition
°C
Dew Point Temp Definition
°C
Rel Hum Definition
%
Wind Dir Definition
10's deg

Wind Spd Definition
km/h
Visibility Definition
km
Stn Press Definition
kPa
Hmdx Definition


Wind Chill Definition


Weather Definition


TIME
00:00 Legend Double Dagger 10.3 8.6 89 3 8 16.1 98.50     LegendNANA
01:00 Legend Double Dagger 10.6 8.9 89 3 5 16.1 98.47     Rain
02:00 Legend Double Dagger 10.6 9.0 90 34 4 16.1 98.48     LegendNANA
03:00 Legend Double Dagger 10.3 9.2 93 5 5 9.7 98.44     Rain,Fog
04:00 Legend Double Dagger 10.3 9.5 95 31 5 16.1 98.46     Rain
05:00 Legend Double Dagger 10.1 9.7 97 LegendMM 4 4.0 98.48     Rain,Fog
06:00 Legend Double Dagger 10.1 9.7 97 6 8 16.1 98.48     LegendNANA
07:00 Legend Double Dagger 10.3 9.9 97 7 5 16.1 98.50     LegendNANA
08:00 Legend Double Dagger 10.5 10.0 97 5 5 16.1 98.54     LegendNANA
09:00 Legend Double Dagger 10.8 10.0 95 6 5 16.1 98.53     LegendNANA
10:00 Legend Double Dagger 11.5 10.5 94 11 5 16.1 98.55     LegendNANA
11:00 Legend Double Dagger 12.7 11.2 90 LegendMM 4 16.1 98.51     LegendNANA
12:00 Legend Double Dagger 14.2 11.9 86 LegendMM 4 16.1 98.45     LegendNANA
13:00 Legend Double Dagger 15.4 12.4 82 LegendMM 4 16.1 98.39     LegendNANA
14:00 Legend Double Dagger 16.5 12.6 78 LegendMM 5 16.1 98.32     LegendNANA
15:00 Legend Double Dagger 16.9 12.8 76 14 8 16.1 98.29     LegendNANA
16:00 Legend Double Dagger 16.3 12.8 80 5 5 16.1 98.27     LegendNANA
17:00 Legend Double Dagger 15.9 13.2 84 2 5 16.1 98.26     LegendNANA
18:00 Legend Double Dagger 14.8 13.2 90 10 8 16.1 98.28     LegendNANA
19:00 Legend Double Dagger 14.1 12.8 92 10 8 16.1 98.31     LegendNANA
20:00 Legend Double Dagger 13.7 12.6 93 12 8 16.1 98.29     LegendNANA
21:00 Legend Double Dagger 13.3 12.4 94 12 5 9.7 98.30     Fog
22:00 Legend Double Dagger 13.1 12.3 95 9 5 6.4 98.27     Fog
23:00 Legend Double Dagger 12.9 12.3 96 8 4 4.8 98.26     Fog

Notes on Data Quality.

Legend

  • E = Estimated
  • M = Missing
  • NA = Not Available
  • ‡ = Partner data that is not subject to review by the National Climate Archives
Date modified: